Time,TemperatureF,DewpointF,PressureIn,WindDirection,WindDirectionDegrees,WindSpeedMPH,WindSpeedGustMPH,Humidity,HourlyPrecipIn,Conditions,Clouds,dailyrainin,SoftwareType,DateUTC
2013-07-30 00:00:00,66.8,66.2,30.00,SE,134,0.0,0.0,98,0.00,,,0.01,Wunderground v.1.15,2013-07-30 04:00:00,
2013-07-30 00:05:00,66.7,66.1,30.00,SE,134,0.0,0.0,98,0.00,,,0.00,Wunderground v.1.15,2013-07-30 04:05:00,
2013-07-30 00:15:00,66.5,65.9,30.00,SE,134,0.0,0.0,98,0.00,,,0.00,Wunderground v.1.15,2013-07-30 04:15:00,
2013-07-30 00:20:00,66.0,65.1,30.00,SE,134,0.0,0.0,97,0.00,,,0.00,Wunderground v.1.15,2013-07-30 04:20:00,
2013-07-30 00:25:00,65.7,64.8,30.00,SE,134,0.0,0.0,97,0.00,,,0.00,Wunderground v.1.15,2013-07-30 04:25:00,
2013-07-30 00:30:00,65.2,64.3,30.00,SE,134,0.0,0.0,97,0.00,,,0.00,Wunderground v.1.15,2013-07-30 04:30:00,
2013-07-30 00:35:00,65.0,64.1,30.00,SE,134,0.0,0.0,97,0.00,,,0.00,Wunderground v.1.15,2013-07-30 04:35:00,
2013-07-30 00:45:00,64.6,63.7,30.00,SE,134,0.0,0.0,97,0.00,,,0.00,Wunderground v.1.15,2013-07-30 04:45:00,
2013-07-30 00:55:00,64.2,63.0,30.00,SE,134,0.0,0.0,96,0.00,,,0.00,Wunderground v.1.15,2013-07-30 04:55:00,
2013-07-30 01:05:00,63.8,62.0,30.00,SE,134,0.0,0.0,94,0.00,,,0.00,Wunderground v.1.15,2013-07-30 05:05:00,
2013-07-30 01:15:00,63.4,61.3,30.00,SE,134,0.0,0.0,93,0.00,,,0.00,Wunderground v.1.15,2013-07-30 05:15:00,
2013-07-30 01:25:00,63.5,61.4,30.00,SE,134,0.0,0.0,93,0.00,,,0.00,Wunderground v.1.15,2013-07-30 05:25:00,
2013-07-30 01:30:00,63.4,61.3,30.00,SE,134,0.0,0.0,93,0.00,,,0.00,Wunderground v.1.15,2013-07-30 05:30:00,
2013-07-30 01:40:00,63.2,60.5,30.01,SE,134,0.0,0.0,91,0.00,,,0.00,Wunderground v.1.15,2013-07-30 05:40:00,
2013-07-30 01:50:00,63.0,60.0,30.00,SE,134,0.0,0.0,90,0.00,,,0.00,Wunderground v.1.15,2013-07-30 05:50:00,
2013-07-30 01:55:00,63.0,59.7,30.00,SE,134,0.0,0.0,89,0.00,,,0.00,Wunderground v.1.15,2013-07-30 05:55:00,
2013-07-30 02:05:00,63.0,59.4,30.00,SE,134,0.0,0.0,88,0.00,,,0.00,Wunderground v.1.15,2013-07-30 06:05:00,
2013-07-30 02:15:00,63.3,58.7,30.00,SE,134,0.0,0.0,85,0.00,,,0.00,Wunderground v.1.15,2013-07-30 06:15:00,
2013-07-30 02:25:00,63.6,59.3,30.00,SE,134,0.0,0.0,86,0.00,,,0.00,Wunderground v.1.15,2013-07-30 06:25:00,
2013-07-30 02:35:00,63.4,58.8,30.00,SE,134,0.0,1.0,85,0.00,,,0.00,Wunderground v.1.15,2013-07-30 06:35:00,
2013-07-30 02:40:00,63.7,58.4,30.00,SE,140,0.0,0.0,83,0.00,,,0.00,Wunderground v.1.15,2013-07-30 06:40:00,
2013-07-30 02:50:00,64.5,58.2,30.00,SSE,148,0.0,0.0,80,0.00,,,0.00,Wunderground v.1.15,2013-07-30 06:50:00,
2013-07-30 03:00:00,65.0,58.0,30.00,SSE,155,0.0,0.0,78,0.00,,,0.00,Wunderground v.1.15,2013-07-30 07:00:00,
2013-07-30 03:10:00,64.9,57.5,29.99,SSE,155,0.0,0.0,77,0.00,,,0.00,Wunderground v.1.15,2013-07-30 07:10:00,
2013-07-30 03:20:00,64.7,57.3,29.99,SSE,164,0.0,0.0,77,0.00,,,0.00,Wunderground v.1.15,2013-07-30 07:20:00,
2013-07-30 03:30:00,64.5,56.8,29.99,SSE,162,0.0,0.0,76,0.00,,,0.00,Wunderground v.1.15,2013-07-30 07:30:00,
2013-07-30 03:35:00,64.7,57.3,29.99,SSE,160,0.0,0.0,77,0.00,,,0.00,Wunderground v.1.15,2013-07-30 07:35:00,
2013-07-30 03:45:00,64.5,57.1,29.99,SE,140,0.0,0.0,77,0.00,,,0.00,Wunderground v.1.15,2013-07-30 07:45:00,
2013-07-30 03:50:00,64.5,56.8,30.00,SE,144,0.0,0.0,76,0.00,,,0.00,Wunderground v.1.15,2013-07-30 07:50:00,
2013-07-30 04:00:00,64.4,56.7,30.00,SE,144,0.0,0.0,76,0.00,,,0.00,Wunderground v.1.15,2013-07-30 08:00:00,
2013-07-30 04:10:00,64.0,56.6,30.00,SE,144,0.0,0.0,77,0.00,,,0.00,Wunderground v.1.15,2013-07-30 08:10:00,
2013-07-30 04:20:00,63.7,57.4,30.00,SE,144,0.0,0.0,80,0.00,,,0.00,Wunderground v.1.15,2013-07-30 08:20:00,
2013-07-30 04:30:00,63.1,56.8,30.00,SE,144,0.0,0.0,80,0.00,,,0.00,Wunderground v.1.15,2013-07-30 08:30:00,
2013-07-30 04:40:00,62.4,56.5,30.00,SE,144,0.0,0.0,81,0.00,,,0.00,Wunderground v.1.15,2013-07-30 08:40:00,
2013-07-30 04:50:00,61.7,56.8,30.01,SE,144,0.0,0.0,84,0.00,,,0.00,Wunderground v.1.15,2013-07-30 08:50:00,
2013-07-30 05:00:00,61.3,56.1,30.01,SE,144,0.0,0.0,83,0.00,,,0.00,Wunderground v.1.15,2013-07-30 09:00:00,
2013-07-30 05:10:00,61.2,56.0,30.01,SE,144,0.0,0.0,83,0.00,,,0.00,Wunderground v.1.15,2013-07-30 09:10:00,
2013-07-30 05:20:00,61.4,55.9,30.02,SE,144,0.0,0.0,82,0.00,,,0.00,Wunderground v.1.15,2013-07-30 09:20:00,
2013-07-30 05:25:00,61.6,56.7,30.02,SE,144,0.0,0.0,84,0.00,,,0.00,Wunderground v.1.15,2013-07-30 09:25:00,
2013-07-30 05:35:00,61.7,56.1,30.02,SE,144,0.0,0.0,82,0.00,,,0.00,Wunderground v.1.15,2013-07-30 09:35:00,
2013-07-30 05:45:00,61.6,56.7,30.02,SE,144,0.0,0.0,84,0.00,,,0.00,Wunderground v.1.15,2013-07-30 09:45:00,
2013-07-30 05:50:00,61.4,56.5,30.03,SE,144,0.0,0.0,84,0.00,,,0.00,Wunderground v.1.15,2013-07-30 09:50:00,
2013-07-30 06:00:00,61.2,57.3,30.03,SE,144,0.0,0.0,87,0.00,,,0.00,Wunderground v.1.15,2013-07-30 10:00:00,
2013-07-30 06:10:00,61.0,57.1,30.03,SE,144,0.0,0.0,87,0.00,,,0.00,Wunderground v.1.15,2013-07-30 10:10:00,
2013-07-30 06:20:00,60.9,57.0,30.03,SE,144,0.0,0.0,87,0.00,,,0.00,Wunderground v.1.15,2013-07-30 10:20:00,
2013-07-30 06:30:00,60.9,56.4,30.03,SE,144,0.0,0.0,85,0.00,,,0.00,Wunderground v.1.15,2013-07-30 10:30:00,
2013-07-30 06:40:00,61.2,57.0,30.03,SE,144,0.0,0.0,86,0.00,,,0.00,Wunderground v.1.15,2013-07-30 10:40:00,
2013-07-30 06:50:00,61.6,57.0,30.03,SE,144,0.0,0.0,85,0.00,,,0.00,Wunderground v.1.15,2013-07-30 10:50:00,
2013-07-30 06:55:00,61.8,57.6,30.03,SE,144,0.0,0.0,86,0.00,,,0.00,Wunderground v.1.15,2013-07-30 10:55:00,
2013-07-30 07:05:00,62.0,57.8,30.03,SE,144,0.0,0.0,86,0.00,,,0.00,Wunderground v.1.15,2013-07-30 11:05:00,
2013-07-30 07:15:00,62.5,57.9,30.03,South,183,0.0,2.0,85,0.00,,,0.00,Wunderground v.1.15,2013-07-30 11:15:00,
2013-07-30 07:20:00,62.8,57.9,30.03,South,178,0.0,0.0,84,0.00,,,0.00,Wunderground v.1.15,2013-07-30 11:20:00,
2013-07-30 07:30:00,63.2,58.6,30.03,South,178,0.0,0.0,85,0.00,,,0.00,Wunderground v.1.15,2013-07-30 11:30:00,
2013-07-30 07:40:00,63.3,58.7,30.03,South,178,0.0,0.0,85,0.00,,,0.00,Wunderground v.1.15,2013-07-30 11:40:00,
2013-07-30 07:55:00,63.9,59.0,30.04,SSE,164,0.0,0.0,84,0.00,,,0.00,Wunderground v.1.15,2013-07-30 11:55:00,
2013-07-30 08:05:00,64.4,59.5,30.04,SSE,165,0.0,0.0,84,0.00,,,0.00,Wunderground v.1.15,2013-07-30 12:05:00,
2013-07-30 08:15:00,65.2,59.9,30.04,SSE,167,0.0,0.0,83,0.00,,,0.00,Wunderground v.1.15,2013-07-30 12:15:00,
2013-07-30 08:25:00,65.9,60.9,30.04,SSE,156,0.0,0.0,84,0.00,,,0.00,Wunderground v.1.15,2013-07-30 12:25:00,
2013-07-30 08:35:00,66.6,59.5,30.04,SSW,206,0.0,0.0,78,0.00,,,0.00,Wunderground v.1.15,2013-07-30 12:35:00,
2013-07-30 08:45:00,67.5,60.0,30.05,SSE,159,0.0,4.0,77,0.00,,,0.00,Wunderground v.1.15,2013-07-30 12:45:00,
2013-07-30 08:50:00,67.9,61.5,30.05,ESE,107,0.0,0.0,80,0.00,,,0.00,Wunderground v.1.15,2013-07-30 12:50:00,
2013-07-30 09:00:00,68.6,60.0,30.05,SE,146,1.0,1.0,74,0.00,,,0.00,Wunderground v.1.15,2013-07-30 13:00:00,
2013-07-30 09:10:00,69.9,61.6,30.05,SSW,196,1.0,1.0,75,0.00,,,0.00,Wunderground v.1.15,2013-07-30 13:10:00,
2013-07-30 09:20:00,71.1,61.6,30.05,South,179,0.0,0.0,72,0.00,,,0.00,Wunderground v.1.15,2013-07-30 13:20:00,
2013-07-30 09:25:00,71.6,62.1,30.05,SSW,212,0.0,2.0,72,0.00,,,0.00,Wunderground v.1.15,2013-07-30 13:25:00,
2013-07-30 09:35:00,72.2,63.1,30.05,SE,131,0.0,0.0,73,0.00,,,0.00,Wunderground v.1.15,2013-07-30 13:35:00,
2013-07-30 09:45:00,72.6,61.8,30.05,SW,234,1.0,6.0,69,0.00,,,0.00,Wunderground v.1.15,2013-07-30 13:45:00,
2013-07-30 09:55:00,73.4,64.2,30.05,SW,214,0.0,0.0,73,0.00,,,0.00,Wunderground v.1.15,2013-07-30 13:55:00,
2013-07-30 10:05:00,73.2,61.2,30.05,ESE,103,1.0,1.0,66,0.00,,,0.00,Wunderground v.1.15,2013-07-30 14:05:00,
2013-07-30 10:10:00,73.5,63.1,30.05,SE,144,1.0,1.0,70,0.00,,,0.00,Wunderground v.1.15,2013-07-30 14:10:00,
2013-07-30 10:20:00,73.7,61.6,30.05,ESE,117,1.0,1.0,66,0.00,,,0.00,Wunderground v.1.15,2013-07-30 14:20:00,
2013-07-30 10:30:00,73.9,62.2,30.05,ESE,107,1.0,1.0,67,0.00,,,0.00,Wunderground v.1.15,2013-07-30 14:30:00,
2013-07-30 10:35:00,74.4,62.7,30.05,ESE,107,1.0,1.0,67,0.00,,,0.00,Wunderground v.1.15,2013-07-30 14:35:00,
2013-07-30 10:45:00,74.6,61.2,30.05,NNE,12,1.0,1.0,63,0.00,,,0.00,Wunderground v.1.15,2013-07-30 14:45:00,
2013-07-30 10:55:00,75.1,62.5,30.05,SE,134,1.0,1.0,65,0.00,,,0.00,Wunderground v.1.15,2013-07-30 14:55:00,
2013-07-30 11:00:00,75.1,61.6,30.05,South,177,1.0,1.0,63,0.00,,,0.00,Wunderground v.1.15,2013-07-30 15:00:00,
2013-07-30 11:10:00,74.9,62.8,30.04,SW,217,0.0,0.0,66,0.00,,,0.00,Wunderground v.1.15,2013-07-30 15:10:00,
2013-07-30 11:20:00,75.7,62.2,30.04,SSE,148,0.0,0.0,63,0.00,,,0.00,Wunderground v.1.15,2013-07-30 15:20:00,
2013-07-30 11:25:00,75.8,62.8,30.04,SSW,200,0.0,1.0,64,0.00,,,0.00,Wunderground v.1.15,2013-07-30 15:25:00,
2013-07-30 11:30:00,75.9,62.4,30.04,East,99,1.0,1.0,63,0.00,,,0.00,Wunderground v.1.15,2013-07-30 15:30:00,
2013-07-30 11:40:00,76.0,61.6,30.04,SE,134,1.0,1.0,61,0.00,,,0.00,Wunderground v.1.15,2013-07-30 15:40:00,
2013-07-30 11:45:00,76.2,62.2,30.03,ESE,117,1.0,1.0,62,0.00,,,0.00,Wunderground v.1.15,2013-07-30 15:45:00,
2013-07-30 11:55:00,76.6,62.6,30.03,ESE,106,1.0,1.0,62,0.00,,,0.00,Wunderground v.1.15,2013-07-30 15:55:00,
2013-07-30 12:05:00,76.8,62.3,30.04,SW,217,1.0,5.0,61,0.00,,,0.00,Wunderground v.1.15,2013-07-30 16:05:00,
2013-07-30 12:15:00,77.0,62.5,30.03,ESE,111,1.0,1.0,61,0.00,,,0.00,Wunderground v.1.15,2013-07-30 16:15:00,
2013-07-30 12:20:00,77.2,64.5,30.03,SSE,160,1.0,1.0,65,0.00,,,0.00,Wunderground v.1.15,2013-07-30 16:20:00,
2013-07-30 12:30:00,77.4,61.9,30.03,ENE,78,1.0,1.0,59,0.00,,,0.00,Wunderground v.1.15,2013-07-30 16:30:00,
2013-07-30 12:40:00,77.6,64.5,30.03,ESE,109,1.0,1.0,64,0.00,,,0.00,Wunderground v.1.15,2013-07-30 16:40:00,
2013-07-30 12:45:00,78.1,63.6,30.03,ESE,113,1.0,1.0,61,0.00,,,0.00,Wunderground v.1.15,2013-07-30 16:45:00,
2013-07-30 12:55:00,76.7,62.7,30.03,ESE,117,1.0,4.0,62,0.00,,,0.00,Wunderground v.1.15,2013-07-30 16:55:00,
2013-07-30 13:05:00,76.0,60.6,30.03,SE,129,1.0,1.0,59,0.00,,,0.00,Wunderground v.1.15,2013-07-30 17:05:00,
2013-07-30 13:15:00,75.7,61.8,30.03,ESE,120,0.0,1.0,62,0.00,,,0.00,Wunderground v.1.15,2013-07-30 17:15:00,
2013-07-30 13:25:00,77.0,63.4,30.03,ESE,113,0.0,1.0,63,0.00,,,0.00,Wunderground v.1.15,2013-07-30 17:25:00,
2013-07-30 13:30:00,77.3,60.9,30.02,East,101,1.0,1.0,57,0.00,,,0.00,Wunderground v.1.15,2013-07-30 17:30:00,
2013-07-30 13:40:00,77.2,61.3,30.02,ESE,109,1.0,1.0,58,0.00,,,0.00,Wunderground v.1.15,2013-07-30 17:40:00,
2013-07-30 13:50:00,77.8,61.8,30.02,ESE,110,1.0,4.0,58,0.00,,,0.00,Wunderground v.1.15,2013-07-30 17:50:00,
2013-07-30 14:00:00,78.2,61.2,30.02,East,92,1.0,2.0,56,0.00,,,0.00,Wunderground v.1.15,2013-07-30 18:00:00,
2013-07-30 14:05:00,78.7,62.2,30.02,East,92,1.0,2.0,57,0.00,,,0.00,Wunderground v.1.15,2013-07-30 18:05:00,
2013-07-30 14:15:00,78.6,62.1,30.02,East,92,1.0,3.0,57,0.00,,,0.00,Wunderground v.1.15,2013-07-30 18:15:00,
2013-07-30 14:25:00,78.4,61.9,30.02,ESE,117,1.0,1.0,57,0.00,,,0.00,Wunderground v.1.15,2013-07-30 18:25:00,
2013-07-30 14:30:00,78.5,61.0,30.02,SE,141,1.0,1.0,55,0.00,,,0.00,Wunderground v.1.15,2013-07-30 18:30:00,
2013-07-30 14:40:00,78.5,61.0,30.02,East,95,1.0,1.0,55,0.00,,,0.00,Wunderground v.1.15,2013-07-30 18:40:00,
2013-07-30 14:45:00,78.7,62.7,30.01,East,101,1.0,2.0,58,0.00,,,0.00,Wunderground v.1.15,2013-07-30 18:45:00,
2013-07-30 14:55:00,79.1,63.5,30.01,SSE,154,1.0,2.0,59,0.00,,,0.00,Wunderground v.1.15,2013-07-30 18:55:00,
2013-07-30 15:00:00,78.7,61.7,30.01,SSW,212,0.0,1.0,56,0.00,,,0.00,Wunderground v.1.15,2013-07-30 19:00:00,
2013-07-30 15:10:00,78.0,62.0,30.01,East,97,2.0,2.0,58,0.00,,,0.00,Wunderground v.1.15,2013-07-30 19:10:00,
2013-07-30 15:20:00,78.1,61.6,30.00,SSW,194,1.0,1.0,57,0.00,,,0.00,Wunderground v.1.15,2013-07-30 19:20:00,
2013-07-30 15:30:00,77.6,63.1,30.00,ESE,105,1.0,1.0,61,0.00,,,0.00,Wunderground v.1.15,2013-07-30 19:30:00,
2013-07-30 15:40:00,78.7,61.2,30.00,SSW,194,0.0,0.0,55,0.00,,,0.00,Wunderground v.1.15,2013-07-30 19:40:00,
2013-07-30 15:45:00,78.8,63.7,30.00,South,180,0.0,1.0,60,0.00,,,0.00,Wunderground v.1.15,2013-07-30 19:45:00,
2013-07-30 15:55:00,78.9,61.9,30.00,SSE,164,0.0,0.0,56,0.00,,,0.00,Wunderground v.1.15,2013-07-30 19:55:00,
2013-07-30 16:05:00,78.7,61.7,30.00,ESE,104,1.0,1.0,56,0.00,,,0.00,Wunderground v.1.15,2013-07-30 20:05:00,
2013-07-30 16:15:00,78.5,62.0,30.00,ESE,109,1.0,2.0,57,0.00,,,0.00,Wunderground v.1.15,2013-07-30 20:15:00,
2013-07-30 16:25:00,78.1,61.1,29.99,SSE,147,0.0,1.0,56,0.00,,,0.00,Wunderground v.1.15,2013-07-30 20:25:00,
2013-07-30 16:35:00,77.1,60.7,29.99,WSW,237,0.0,0.0,57,0.00,,,0.00,Wunderground v.1.15,2013-07-30 20:35:00,
2013-07-30 16:40:00,76.6,60.7,29.99,WSW,237,0.0,0.0,58,0.00,,,0.00,Wunderground v.1.15,2013-07-30 20:40:00,
2013-07-30 16:50:00,76.1,59.8,29.99,WSW,241,0.0,0.0,57,0.00,,,0.00,Wunderground v.1.15,2013-07-30 20:50:00,
2013-07-30 17:00:00,76.0,60.2,29.99,SW,215,0.0,0.0,58,0.00,,,0.00,Wunderground v.1.15,2013-07-30 21:00:00,
2013-07-30 17:10:00,75.7,59.4,29.99,SSE,160,0.0,0.0,57,0.00,,,0.00,Wunderground v.1.15,2013-07-30 21:10:00,
2013-07-30 17:20:00,75.3,60.5,29.99,SSE,160,0.0,0.0,60,0.00,,,0.00,Wunderground v.1.15,2013-07-30 21:20:00,
2013-07-30 17:30:00,75.2,58.4,29.99,SSE,164,0.0,0.0,56,0.00,,,0.00,Wunderground v.1.15,2013-07-30 21:30:00,
2013-07-30 17:40:00,75.1,58.8,30.00,SSE,153,0.0,0.0,57,0.00,,,0.00,Wunderground v.1.15,2013-07-30 21:40:00,
2013-07-30 21:06:00,66.7,59.6,30.05,SSE,153,0.0,0.0,78,0.00,,,0.00,Wunderground v.1.15,2013-07-31 01:06:00,
2013-07-30 21:15:00,66.4,59.3,30.05,SSE,152,0.0,0.0,78,0.00,,,0.00,Wunderground v.1.15,2013-07-31 01:15:00,
2013-07-30 21:20:00,66.3,59.6,30.05,SSE,153,0.0,0.0,79,0.00,,,0.00,Wunderground v.1.15,2013-07-31 01:20:00,
2013-07-30 21:30:00,66.2,59.5,30.05,SSE,153,0.0,0.0,79,0.00,,,0.00,Wunderground v.1.15,2013-07-31 01:30:00,
2013-07-30 21:40:00,66.2,59.5,30.05,SSE,153,0.0,0.0,79,0.00,,,0.00,Wunderground v.1.15,2013-07-31 01:40:00,
2013-07-30 21:50:00,66.2,59.8,30.05,SSE,153,0.0,0.0,80,0.00,,,0.00,Wunderground v.1.15,2013-07-31 01:50:00,
2013-07-30 22:00:00,66.3,59.9,30.05,SSE,153,0.0,0.0,80,0.00,,,0.00,Wunderground v.1.15,2013-07-31 02:00:00,
2013-07-30 22:10:00,66.3,59.9,30.05,SSE,152,0.0,0.0,80,0.00,,,0.00,Wunderground v.1.15,2013-07-31 02:10:00,
2013-07-30 22:20:00,66.4,59.7,30.05,SSE,153,0.0,0.0,79,0.00,,,0.00,Wunderground v.1.15,2013-07-31 02:20:00,
2013-07-30 22:25:00,66.4,59.3,30.05,SSE,153,0.0,0.0,78,0.00,,,0.00,Wunderground v.1.15,2013-07-31 02:25:00,
2013-07-30 22:35:00,66.5,59.8,30.05,SSE,152,0.0,0.0,79,0.00,,,0.00,Wunderground v.1.15,2013-07-31 02:35:00,
2013-07-30 22:40:00,66.5,59.8,30.05,SSE,153,0.0,0.0,79,0.00,,,0.00,Wunderground v.1.15,2013-07-31 02:40:00,
2013-07-30 22:50:00,66.5,59.4,30.05,SSE,153,0.0,0.0,78,0.00,,,0.00,Wunderground v.1.15,2013-07-31 02:50:00,
2013-07-30 23:00:00,66.5,59.4,30.05,SSE,153,0.0,0.0,78,0.00,,,0.00,Wunderground v.1.15,2013-07-31 03:00:00,
2013-07-30 23:10:00,66.4,59.7,30.05,SSE,153,0.0,0.0,79,0.00,,,0.00,Wunderground v.1.15,2013-07-31 03:10:00,
2013-07-30 23:20:00,66.3,59.2,30.05,SSE,152,0.0,0.0,78,0.00,,,0.00,Wunderground v.1.15,2013-07-31 03:20:00,
2013-07-30 23:30:00,66.3,59.6,30.05,SSE,152,0.0,0.0,79,0.00,,,0.00,Wunderground v.1.15,2013-07-31 03:30:00,
2013-07-30 23:40:00,66.2,59.1,30.04,SSE,153,0.0,0.0,78,0.00,,,0.00,Wunderground v.1.15,2013-07-31 03:40:00,
2013-07-30 23:50:00,66.1,59.4,30.04,SSE,152,0.0,0.0,79,0.00,,,0.00,Wunderground v.1.15,2013-07-31 03:50:00,